This is the latest recevied weather packets stored in our database for station/object SQ3VAS-10. If no packets are shown the sender has not sent any weather packets the latest 10 day(s).
| Time | Temp. | Humidity | Pressure | Rain* | Wind** | Luminosity | Snow |
|---|---|---|---|---|---|---|---|
| 1778221915 | 11.11° C | 67% | 1021.1 hPa | - | - | - | - |
| 1778221343 | 11.11° C | 68% | 1020.9 hPa | - | - | - | - |
| 1778220768 | 10.56° C | 70% | 1020.7 hPa | - | - | - | - |
| 1778220196 | 10.56° C | 72% | 1020.9 hPa | - | - | - | - |
| 1778219622 | 10° C | 72% | 1021 hPa | - | - | - | - |
| 1778219050 | 10° C | 72% | 1020.9 hPa | - | - | - | - |
| 1778218477 | 9.44° C | 74% | 1020.8 hPa | - | - | - | - |
| 1778217904 | 9.44° C | 74% | 1020.8 hPa | - | - | - | - |
| 1778217331 | 8.89° C | 76% | 1020.7 hPa | - | - | - | - |
| 1778216759 | 7.78° C | 77% | 1020.7 hPa | - | - | - | - |
| 1778216187 | 7.78° C | 78% | 1020.8 hPa | - | - | - | - |
| 1778215614 | 7.78° C | 79% | 1020.8 hPa | - | - | - | - |
| 1778215042 | 7.22° C | 80% | 1020.7 hPa | - | - | - | - |
| 1778214471 | 7.22° C | 81% | 1020.8 hPa | - | - | - | - |
| 1778213896 | 6.67° C | 81% | 1020.7 hPa | - | - | - | - |
| 1778213324 | 6.67° C | 82% | 1020.8 hPa | - | - | - | - |
| 1778212752 | 6.67° C | 83% | 1020.7 hPa | - | - | - | - |
| 1778212180 | 6.67° C | 85% | 1020.7 hPa | - | - | - | - |
| 1778211608 | 6.67° C | 85% | 1020.6 hPa | - | - | - | - |
| 1778211036 | 6.11° C | 86% | 1020.6 hPa | - | - | - | - |
| 1778210464 | 6.11° C | 86% | 1020.6 hPa | - | - | - | - |
| 1778209892 | 6.11° C | 86% | 1020.6 hPa | - | - | - | - |
| 1778209323 | 6.11° C | 86% | 1020.5 hPa | - | - | - | - |
| 1778208748 | 6.67° C | 85% | 1020.4 hPa | - | - | - | - |
| 1778208176 | 6.11° C | 85% | 1020.5 hPa | - | - | - | - |
* Rain since midnight (hover to see other rain measurements)
** Current wind speed in m/s (hover to see current wind gust speed)